Flag for Denmark Weather past 2 weeks in Hirtshals, Denmark

Now
43 °F

Quite cool.


Feels Like: 36 °F
Forecast: 42 / 50 °F
Wind: 14 mph from West

Location: Aalborg

Current Time: Apr 28, 2015 at 12:19:25 AM

Latest Report: Apr 27, 2015 at 10:00 PM


Visibility: 22 mi

Pressure: 29.75 "Hg

Humidity: 72%

Dew point: 35 °F

Location of HirtshalsLocation

Historic Weather in Hirtshals — Graph

°F

Hirtshals temperature yesterday

Maximum temperature yesterday: 51 °F (at 1:00 PM)
Minimum temperature yesterday: 35 °F (at 5:00 AM)
Average temperature yesterday: 44 °F

Past Weeks' High & Low Weather Summary

 TemperatureHumidityPressure
High67 °F (Apr 20, 2:00 PM)99% (Apr 15, 7:00 AM)30.40 "Hg (Apr 15, 7:00 AM)
Low35 °F (Apr 27, 5:00 AM)19% (Apr 20, 5:00 PM)29.50 "Hg (Apr 25, 7:00 PM)
Average48 °F74%29.98 "Hg
* Reported Apr 12 10:00 PM — Apr 27 10:00 PM, Hirtshals, Weather by CustomWeather, © 2015

Note: Actual official high and low records may vary slightly from our data, if they occured in-between our weather recording intervals... More about our weather records

Advertising

Hirtshals weather history for previous 24 hours

 ConditionsComfort  
Time TempWeatherWind HumidityBarometerVisibility
10:00 PM
Mon, Apr 27
43 °FQuite cool.14 mph72%29.75 "Hg22 mi
9:00 PM44 °FQuite cool.16 mph71%29.74 "Hg22 mi
8:00 PM45 °FPassing clouds.18 mph63%29.73 "Hg16 mi
7:00 PM48 °FCool.22 mph58%29.71 "Hg22 mi
6:00 PM49 °FCool.21 mph54%29.71 "Hg22 mi
5:00 PM50 °FPassing clouds.20 mph51%29.71 "Hg16 mi
4:00 PM50 °FCool.21 mph45%29.70 "Hg22 mi
3:00 PM49 °FCool.20 mph62%29.70 "Hg22 mi
2:00 PM48 °FOvercast.20 mph65%29.70 "Hg16 mi
1:00 PM51 °FCool.14 mph51%29.69 "Hg22 mi
12:00 PM49 °FCool.10 mph57%29.69 "Hg22 mi
11:00 AM48 °FScattered clouds.12 mph62%29.69 "Hg16 mi
10:00 AM47 °FCool.9 mph72%29.69 "Hg22 mi
9:00 AM45 °FCool.9 mph83%29.69 "Hg22 mi
8:00 AM43 °FPassing clouds.7 mph88%29.69 "Hg12 mi
7:00 AM38 °FChilly.5 mph94%29.68 "Hg19 mi
6:00 AM36 °FChilly.3 mph94%29.68 "Hg17 mi
5:00 AM35 °FPassing clouds.3 mph92%29.69 "Hg16 mi
4:00 AM37 °FChilly.5 mph92%29.70 "Hg19 mi
3:00 AM39 °FChilly.5 mph90%29.70 "Hg22 mi
2:00 AM39 °FPassing clouds.7 mph90%29.71 "Hg16 mi
1:00 AM40 °FChilly.6 mph89%29.71 "Hg22 mi
12:00 AM40 °FQuite cool.7 mph83%29.71 "Hg22 mi
Weather by CustomWeather, © 2015

See weather overviewHow to use our weather pages